Theta_e
281 281 282 284 283 282 280 280 281 281 280 280 279 279 279 278 273 275 277 278 276 278 280 282 283 284 286 288 290 291 291 292 292 292 292 291 292 292 293 293 293 293 293 292 292 293 293 294 294 294 294 294 295 295 297 298 302 303 304 306 307 307 307 307 308 309 310 311 313 314 314 313 313 313 313 312 312 312 313 313 313 314 315 315 314 314 314
282 282 282 284 284 282 282 281 280 281 281 279 279 278 278 278 277 278 279 278 277 280 281 282 284 285 286 287 290 292 291 291 291 291 291 291 291 291 292 292 293 294 294 294 293 294 294 294 294 294 294 294 294 294 295 295 297 300 304 305 306 306 307 308 309 311 311 312 312 313 313 312 312 313 313 313 313 313 313 313 313 313 313 314 314 314 313
281 282 284 284 284 283 281 281 281 281 281 281 281 281 280 282 280 278 279 279 277 281 283 284 285 285 286 287 287 288 290 291 291 290 290 290 291 291 291 292 293 294 294 294 295 294 294 294 294 294 294 294 294 295 294 294 295 297 302 303 303 303 304 305 308 311 311 312 312 312 313 313 313 313 313 313 313 313 312 311 311 312 313 313 313 313 312
279 282 283 283 284 283 281 281 281 280 280 280 280 279 281 278 279 278 277 276 273 281 283 283 283 284 284 284 284 284 286 288 290 289 288 288 289 290 291 292 293 294 294 294 294 294 294 294 294 294 294 294 295 295 294 294 294 295 297 300 301 303 304 304 305 307 308 309 309 311 311 311 311 311 312 312 312 312 311 311 311 312 312 312 313 312 312
275 281 282 282 283 282 280 278 280 280 280 280 281 281 282 281 281 280 278 277 278 281 284 281 282 283 283 283 284 284 284 285 286 287 287 287 287 287 288 290 292 293 294 294 294 294 295 295 295 294 294 295 295 294 294 294 294 294 293 293 296 300 301 302 304 304 306 306 306 308 310 311 310 306 310 310 310 310 310 311 311 310 311 311 311 311 310
275 279 279 281 279 270 272 280 284 284 280 281 280 279 280 281 282 278 279 281 281 281 281 281 280 282 282 283 284 285 284 284 284 285 286 286 287 287 288 288 289 290 292 294 294 294 295 295 296 295 295 296 295 295 295 294 294 293 294 294 293 294 295 298 299 301 304 304 306 309 311 310 309 308 309 310 309 310 309 309 310 309 309 309 309 308 309
275 277 278 274 268 270 279 282 283 285 284 283 280 280 281 282 282 282 282 282 282 283 282 282 282 283 283 284 284 285 286 285 284 284 285 285 286 286 287 287 288 289 290 292 293 293 295 297 295 295 296 296 295 295 295 295 294 294 294 293 294 295 294 295 296 298 301 302 304 305 304 305 307 307 306 304 307 307 308 308 308 308 307 307 306 306 306
272 271 270 268 265 277 280 281 282 284 283 282 282 281 281 281 280 281 280 282 282 283 283 284 284 284 284 284 285 285 285 286 285 284 284 285 285 286 287 287 288 289 290 291 293 294 296 297 296 295 295 296 295 295 295 295 294 294 294 295 295 294 295 295 295 296 297 298 301 301 300 300 304 305 303 304 305 302 303 303 304 305 304 305 304 303 301
272 267 263 267 277 277 278 278 280 280 279 279 277 274 278 281 281 281 280 281 281 282 283 283 283 283 283 281 283 284 285 285 285 285 285 285 286 286 286 287 287 287 288 290 291 292 291 294 295 294 295 296 295 295 295 295 294 295 295 296 296 295 296 295 296 295 295 296 296 297 297 299 301 301 300 300 299 299 301 301 302 302 303 302 302 301 298
270 269 266 265 263 263 274 277 280 281 282 282 280 277 276 282 280 282 281 280 280 281 282 281 282 284 283 280 280 282 284 285 285 285 286 286 286 286 286 286 287 288 288 289 291 291 289 291 291 292 293 295 294 294 295 294 295 295 295 295 295 296 296 297 297 296 297 296 296 296 295 297 297 296 296 296 297 299 300 299 300 299 297 297 295 297 298
270 268 268 265 266 267 273 279 280 281 281 281 279 276 275 280 279 281 281 280 280 280 280 281 281 280 278 277 278 281 284 285 285 285 285 286 286 286 286 286 287 287 288 289 292 290 289 290 291 291 292 293 293 293 293 293 294 294 295 295 296 296 296 296 295 295 295 297 297 296 297 297 297 296 297 297 296 296 297 298 297 296 298 297 293 292 292
270 268 267 267 263 269 277 278 278 280 281 281 279 269 268 278 279 280 280 279 279 280 279 279 279 277 273 277 278 283 285 286 286 286 286 287 287 287 287 287 288 289 289 288 288 288 288 290 291 291 291 292 293 292 292 292 292 293 294 296 297 296 296 296 295 295 296 297 297 298 298 297 297 297 297 296 296 297 296 298 297 296 296 296 293 290 291
271 271 266 266 268 275 278 279 281 280 282 280 272 268 270 279 279 280 279 279 279 279 280 279 277 279 280 281 283 284 285 286 287 288 290 289 290 289 289 290 292 290 289 288 288 288 288 288 289 290 290 290 291 291 291 291 292 292 294 295 296 297 297 297 297 296 297 297 297 297 297 297 297 297 297 297 296 297 296 296 297 295 294 292 291 289 289
268 265 268 267 267 272 280 280 282 282 281 272 268 273 278 279 280 281 280 280 280 279 281 280 280 281 282 284 283 284 285 286 287 288 288 289 289 290 290 291 290 289 290 290 290 290 289 289 290 289 289 289 290 290 290 290 291 292 292 293 293 294 295 296 297 297 297 298 299 299 298 298 297 296 295 296 296 297 297 297 296 293 292 291 290 289 288
268 266 266 267 268 275 281 281 279 280 273 271 279 280 281 281 280 281 281 281 282 281 281 280 280 279 280 280 282 282 283 284 284 284 285 285 286 286 286 287 288 289 287 288 288 288 289 289 289 289 288 288 289 289 289 290 291 291 292 292 292 293 293 294 295 296 297 298 299 299 298 297 297 295 295 295 295 296 296 296 295 293 291 291 290 289 288
267 266 265 267 272 277 282 280 273 279 280 282 281 281 281 284 282 282 281 281 282 282 282 282 282 282 281 282 281 281 282 283 283 284 285 285 285 286 286 286 286 288 286 286 287 287 288 289 289 289 288 288 289 288 288 290 291 292 291 292 292 292 293 293 293 295 296 297 297 296 296 295 295 294 295 296 295 295 296 296 295 293 291 291 291 290 288
273 272 274 278 281 281 284 284 283 284 286 287 289 287 286 284 285 287 284 285 285 284 284 284 283 283 283 282 281 280 281 281 282 283 284 284 284 284 285 285 286 286 285 285 285 286 286 287 288 288 288 287 288 288 289 290 291 291 291 292 292 292 292 293 293 294 294 296 296 296 296 296 295 293 294 295 295 293 295 294 294 294 292 292 293 291 289
282 283 283 284 284 285 284 287 288 287 287 288 289 287 285 286 287 286 285 286 286 285 284 284 284 283 282 281 281 281 281 281 282 283 283 283 283 283 283 283 284 285 285 284 284 284 285 286 286 288 288 287 287 289 290 291 291 291 291 291 291 291 292 292 292 292 293 295 296 296 296 295 295 294 295 294 295 293 293 294 294 294 292 291 291 291 290
276 272 282 282 283 284 285 285 287 288 288 287 287 286 285 286 285 285 285 285 284 285 283 284 283 282 281 281 280 281 281 281 281 281 281 282 282 282 282 283 284 284 284 283 283 284 284 285 285 286 286 287 288 289 289 290 290 290 290 290 290 291 291 291 292 291 291 292 293 294 295 295 294 294 293 293 295 295 295 295 293 292 292 291 290 290 289
268 269 279 281 283 282 283 283 284 284 285 286 285 285 285 284 285 285 285 283 283 282 282 281 280 280 280 280 280 280 280 281 281 281 281 281 282 282 283 283 284 284 284 283 283 284 284 285 285 286 286 286 287 287 288 289 289 289 289 289 289 289 290 291 291 291 291 289 291 292 293 292 292 291 291 292 293 294 294 294 293 292 291 291 291 291 290
276 277 278 277 279 279 280 281 281 282 282 283 284 284 284 284 284 283 283 283 282 281 281 280 279 280 280 279 280 280 280 280 280 281 281 282 282 282 283 283 284 284 284 284 284 284 284 285 285 285 285 286 286 286 287 288 288 288 288 289 289 289 289 289 290 290 291 291 291 291 289 287 286 289 292 291 293 293 291 293 295 294 292 292 293 292 291
268 271 276 278 272 270 278 280 280 280 280 281 282 281 283 283 282 281 281 280 281 280 280 280 280 280 280 280 279 279 280 280 281 281 281 282 282 283 284 285 285 285 285 285 285 284 285 286 286 286 285 286 286 287 287 287 288 287 288 288 288 288 289 289 289 289 289 288 289 289 288 287 287 286 285 288 287 289 289 290 291 290 291 293 293 291 290
267 273 278 280 277 275 275 278 280 280 280 280 281 281 280 280 280 280 280 280 281 281 281 280 280 279 280 280 279 279 280 281 282 282 283 283 284 284 285 285 285 285 285 285 285 285 285 286 286 287 287 287 287 287 288 288 288 288 288 288 288 288 288 288 288 289 288 287 287 286 286 286 287 286 286 287 287 287 288 288 289 290 289 289 289 290 291
279 277 278 278 278 279 281 279 280 281 280 281 281 281 280 280 280 280 280 281 282 281 280 279 280 280 280 280 280 280 281 283 283 284 285 285 285 286 286 285 285 284 284 285 285 285 286 286 287 287 287 288 288 288 288 288 288 288 288 287 287 287 288 288 288 288 288 289 288 286 285 286 287 287 287 287 287 288 287 288 288 288 289 288 289 289 289
280 280 278 279 279 278 279 280 281 280 283 282 280 280 281 281 282 283 284 283 281 280 280 279 281 280 279 281 280 281 282 283 284 285 285 286 286 285 285 284 284 284 284 285 286 286 287 287 287 287 287 288 289 289 289 289 288 287 287 287 287 287 287 287 288 288 288 288 288 288 287 286 286 286 287 288 288 286 287 287 287 287 287 288 288 288 288
280 280 279 279 280 280 281 280 281 282 282 283 284 284 286 287 285 285 283 281 280 280 281 281 280 281 280 281 281 281 282 283 285 285 285 285 284 284 283 283 284 285 286 286 286 286 286 287 287 287 287 288 288 289 289 289 289 288 287 287 287 287 287 287 287 287 288 288 288 288 289 288 288 287 288 288 287 287 287 287 288 287 287 287 287 287 287
280 280 281 280 280 281 279 280 281 281 281 280 280 281 281 282 288 285 281 280 280 280 281 281 280 280 280 281 282 283 283 284 285 285 284 284 283 283 284 285 286 286 286 286 286 286 286 286 286 287 287 288 289 290 290 290 289 288 288 288 287 286 285 286 287 288 287 288 288 288 287 288 288 288 288 287 287 287 287 288 288 287 285 285 286 287 287
280 280 280 278 276 278 280 280 280 280 280 281 280 281 281 279 279 281 280 281 280 280 280 280 280 279 280 280 281 283 284 284 284 284 283 283 284 285 285 286 286 286 285 285 286 286 286 287 287 287 287 289 289 290 290 290 289 289 288 288 288 287 287 286 286 287 287 287 287 287 287 287 288 288 287 287 287 287 287 287 285 283 282 283 283 286 287
280 279 280 279 279 278 279 280 280 281 281 282 282 280 280 280 280 279 279 280 280 280 280 281 280 279 279 280 282 283 284 284 283 282 283 284 285 285 285 285 285 285 285 285 286 287 287 287 287 286 287 288 289 290 290 290 289 289 289 288 288 288 287 287 287 287 287 287 287 288 286 287 287 287 286 286 286 287 287 286 285 285 284 283 284 285 285
279 279 281 281 280 280 282 281 281 281 280 280 280 281 280 280 280 279 280 280 279 280 281 280 279 280 281 281 283 284 283 283 283 283 284 284 285 285 285 285 285 285 286 286 286 286 286 286 286 286 287 289 290 290 290 290 290 290 290 290 289 288 288 288 287 287 286 286 287 285 287 287 286 287 287 286 285 285 285 285 284 283 283 284 284 284 283
279 279 280 281 280 280 281 281 281 280 280 280 279 280 280 280 280 279 281 281 280 280 280 280 280 280 280 281 283 284 284 283 282 283 284 284 284 284 284 285 284 283 284 284 285 285 285 286 286 286 288 289 289 290 290 290 290 291 290 290 290 288 287 287 287 288 287 287 286 287 286 287 286 286 285 285 285 285 285 284 283 283 283 284 283 283 284
280 280 279 280 279 280 280 280 280 281 280 279 280 280 280 280 280 281 281 281 282 282 281 280 280 280 279 280 280 280 280 281 282 283 283 284 284 284 285 285 285 285 285 285 285 285 285 285 285 287 288 289 289 290 291 290 290 290 291 290 290 290 288 287 287 287 288 287 287 287 286 286 286 286 285 285 285 285 285 284 284 283 283 283 283 283 284
280 280 279 279 280 280 280 279 280 280 280 280 278 280 280 281 280 281 282 282 282 281 280 279 279 278 278 279 278 278 280 281 282 282 282 282 283 284 284 284 285 285 284 285 285 286 285 285 286 287 287 288 290 291 291 291 290 290 290 291 291 291 288 287 288 288 288 288 287 287 286 286 285 286 285 285 285 285 284 285 284 283 283 283 283 284 285
281 280 280 279 281 280 280 281 280 280 280 279 279 279 280 281 280 281 281 281 281 280 278 279 278 278 277 277 277 277 279 281 281 281 281 282 283 283 283 284 284 285 285 285 286 286 285 286 286 287 287 289 291 291 291 291 291 290 290 290 290 290 289 288 287 288 288 287 287 286 286 285 285 285 284 284 284 284 284 284 284 283 283 283 284 284 285
281 280 280 280 279 280 281 281 281 280 280 278 279 280 281 280 279 280 280 280 280 280 280 279 279 279 277 277 275 277 280 280 280 281 281 282 282 283 283 283 284 284 284 285 285 285 285 286 286 286 287 289 290 290 290 290 291 290 290 290 289 290 289 288 289 289 288 287 287 286 285 285 284 284 284 284 284 283 282 283 284 284 284 283 284 285 285
280 281 281 279 279 279 280 280 282 282 281 279 278 277 280 281 279 278 279 280 279 281 280 278 278 279 279 279 278 279 280 281 281 281 281 282 282 283 283 282 282 282 283 284 285 284 285 285 285 285 286 288 289 290 289 289 290 290 290 290 289 288 287 287 287 288 287 287 287 286 285 284 284 284 284 284 284 283 283 283 283 284 285 284 285 285 285
281 282 281 280 279 280 280 281 283 283 282 280 279 280 281 279 278 278 278 279 279 280 280 279 280 281 280 281 282 281 281 281 281 281 282 282 282 282 282 281 281 281 281 282 283 284 284 285 285 285 286 287 287 288 288 287 290 290 290 290 290 289 289 288 288 288 287 287 286 285 285 285 284 284 284 284 284 284 284 284 284 284 285 285 285 285 285
281 281 281 281 281 280 280 281 280 280 280 279 278 278 279 278 278 278 279 278 279 279 280 280 281 282 282 283 282 281 281 281 281 281 281 281 282 282 281 280 280 280 280 280 282 283 284 284 284 285 286 286 286 287 287 286 287 290 290 290 289 289 288 288 288 287 287 287 286 286 286 285 285 284 285 284 284 285 285 285 285 285 285 285 285 285 285
281 280 280 280 280 280 280 280 279 279 280 281 280 279 278 278 278 277 278 278 279 280 280 280 281 282 282 282 282 282 281 281 281 281 281 281 281 280 280 279 280 280 280 282 283 283 284 284 284 285 285 286 286 287 286 286 287 289 289 289 289 289 288 288 288 288 288 288 287 287 287 286 286 286 286 286 286 285 285 286 286 285 285 285 285 285 285
280 281 282 280 280 281 280 280 280 279 278 278 279 280 279 278 278 277 278 278 279 279 280 280 280 280 280 280 280 280 280 280 280 279 279 280 279 279 279 280 281 281 282 282 282 283 283 284 284 284 284 285 286 286 286 286 286 287 287 287 287 287 288 288 288 288 287 287 287 286 286 286 286 285 285 286 286 285 285 285 285 285 285 285 285 284 284
282 281 280 280 281 280 280 280 281 280 279 279 278 279 278 278 278 277 277 278 279 279 279 279 279 279 279 279 279 279 279 279 278 277 277 278 278 277 277 278 280 280 281 282 282 283 283 283 283 283 283 284 285 285 286 286 286 286 286 285 286 286 286 286 286 286 286 286 286 286 285 285 285 285 285 285 285 285 285 285 285 284 284 284 283 283 283
282 281 280 280 280 281 280 280 280 280 280 280 279 278 278 277 278 278 277 277 278 279 279 279 279 278 278 278 278 278 277 277 277 277 277 277 277 276 275 277 280 279 281 281 282 282 282 282 283 283 283 284 285 285 285 285 285 285 285 284 284 284 285 285 285 285 285 285 285 285 285 285 284 284 284 284 283 283 283 283 283 283 283 283 283 282 282
282 281 281 281 281 281 281 281 281 281 280 281 280 278 278 277 278 277 277 277 277 278 278 278 279 279 277 276 276 277 277 277 276 277 277 277 277 278 277 278 279 280 281 280 280 280 281 281 282 282 283 284 284 284 285 285 284 284 284 284 284 284 283 283 283 284 284 284 284 284 284 283 283 282 282 282 282 282 282 282 281 281 281 282 282 282 282
283 282 282 282 282 282 281 281 280 280 280 282 280 278 278 278 278 278 277 276 276 277 278 278 278 277 277 276 276 276 276 276 276 276 276 276 277 278 279 278 279 279 280 280 280 280 280 280 281 282 283 283 284 284 284 284 284 284 283 283 283 283 283 283 282 283 282 282 282 282 282 282 282 281 281 281 280 280 280 280 281 281 281 281 281 281 281
283 283 282 282 282 281 281 281 281 282 282 280 278 277 278 278 278 277 277 276 276 276 277 277 278 277 277 276 276 277 277 277 276 276 276 275 275 276 279 279 278 278 279 279 279 279 280 280 281 281 281 282 282 283 283 283 283 283 283 283 283 283 283 282 282 282 282 281 281 281 281 281 281 280 280 280 280 280 280 280 280 280 280 280 280 280 280
282 283 282 282 281 282 283 283 283 282 280 279 278 278 278 278 278 277 277 277 276 277 277 277 278 278 277 277 276 276 276 276 276 277 277 276 276 278 278 278 277 278 279 279 279 279 279 280 280 280 281 281 281 281 281 282 282 282 282 282 282 282 282 282 282 282 281 281 281 281 281 281 280 280 280 280 280 280 280 280 279 280 280 280 280 280 280
283 282 282 282 283 283 283 282 282 281 280 279 279 278 278 278 278 277 277 277 277 277 277 277 277 277 277 277 277 276 276 275 276 277 276 277 277 277 277 278 278 278 278 278 278 279 279 279 280 280 280 280 280 280 281 281 281 281 281 281 281 281 281 281 281 281 281 281 281 281 281 281 280 281 280 280 280 280 280 280 280 280 281 280 280 280 280
283 283 283 283 283 283 282 281 281 281 281 282 282 282 279 279 278 277 277 276 276 277 277 277 277 277 277 277 277 277 276 276 272 275 276 277 277 277 277 276 277 278 278 278 278 279 279 279 280 280 280 279 279 280 280 280 280 280 280 280 280 280 280 280 280 280 280 280 280 280 280 280 280 280 280 280 280 280 281 281 281 281 281 280 280 280 280
284 284 284 283 282 282 282 282 282 282 282 282 281 281 279 278 278 277 277 276 276 276 276 276 277 277 277 277 277 276 277 276 274 275 277 276 276 276 277 278 278 278 277 277 277 277 278 279 279 279 279 279 279 279 279 279 279 279 279 279 279 279 279 279 279 280 280 280 280 280 280 280 280 280 280 280 281 281 281 281 281 281 281 280 280 280 280
284 283 282 282 282 282 282 282 282 283 283 282 282 280 278 278 277 277 277 276 277 277 276 276 276 276 277 277 277 277 277 277 277 276 277 277 276 277 277 277 278 278 278 277 277 276 277 278 278 278 278 277 278 278 278 278 278 278 278 278 278 278 279 279 280 280 279 279 279 279 279 279 279 279 279 280 280 280 281 281 281 280 280 280 279 279 279
283 282 283 283 283 284 284 284 285 284 283 283 282 279 278 278 279 279 278 277 276 276 276 276 276 276 276 276 276 276 277 277 277 278 276 276 276 278 278 277 277 277 277 276 274 275 275 276 275 276 277 277 277 277 277 277 277 277 277 277 277 277 278 278 278 278 278 278 278 278 278 278 278 278 278 278 278 278 279 279 279 279 279 279 279 279 279
284 284 285 284 284 283 283 284 284 283 283 282 281 279 279 279 279 278 277 278 277 277 277 276 276 276 276 276 276 276 276 276 276 276 278 277 277 277 277 278 276 276 276 276 275 277 274 275 277 277 277 275 275 276 277 277 276 276 277 277 277 277 277 276 276 277 277 277 277 277 277 277 278 277 277 277 277 277 277 276 276 277 277 277 277 277 277
Wind_Speed
5 6 6 4 6 4 3 4 3 4 5 5 4 0 1 4 2 7 3 5 5 0 3 4 5 4 5 6 8 7 5 8 10 13 14 12 11 11 12 10 10 11 11 9 11 11 10 11 12 10 10 9 9 7 6 5 5 5 2 4 5 5 5 5 5 6 7 7 7 9 8 8 8 7 8 8 8 4 4 6 6 6 6 6 4 5 2
8 9 8 7 9 3 6 8 6 3 11 6 5 4 3 2 2 6 13 10 6 1 2 3 3 3 3 4 4 8 12 10 10 12 12 11 10 10 9 9 9 9 9 10 10 11 13 13 12 12 11 10 8 7 7 6 5 4 4 5 4 2 1 3 6 8 9 9 10 9 10 11 9 9 9 10 12 11 9 8 8 7 6 4 6 7 6
4 4 5 5 7 5 5 6 7 5 8 11 6 5 4 10 9 6 10 13 6 1 1 3 3 3 2 8 14 11 8 9 11 12 11 10 9 8 8 8 8 8 9 10 11 12 11 11 10 9 8 8 9 10 9 7 6 6 2 3 3 3 1 1 3 4 4 7 9 9 10 11 11 10 11 9 10 10 10 9 8 8 12 12 10 10 9
2 1 4 5 9 10 7 3 4 6 4 7 1 4 1 2 8 5 6 7 4 2 2 3 3 3 9 12 9 10 9 8 10 12 11 10 9 9 8 8 8 9 9 9 9 8 8 8 9 9 9 8 10 10 9 10 8 5 5 3 1 3 4 3 2 2 2 1 2 2 3 3 2 1 4 8 9 10 9 8 7 8 9 10 9 8 7
3 3 2 10 9 7 4 1 1 3 4 5 5 3 5 2 3 10 8 6 4 4 2 6 4 7 9 9 7 6 8 7 8 9 9 8 8 8 8 9 8 7 7 6 6 6 6 7 7 7 6 7 9 7 8 7 8 10 8 6 5 2 2 2 0 1 1 3 6 7 7 8 8 6 5 5 7 7 7 6 6 8 8 7 7 6 7
5 4 2 2 5 2 5 2 2 2 4 7 9 2 3 3 1 0 3 7 5 5 4 7 5 8 7 6 4 3 4 6 7 7 7 6 5 6 7 6 7 6 5 5 5 4 4 5 5 5 4 5 4 4 4 5 7 7 8 8 7 7 7 6 4 1 2 3 5 7 9 9 5 3 5 7 6 6 6 6 7 7 6 6 5 5 6
7 2 2 3 3 6 3 6 1 2 6 8 14 6 4 4 5 7 10 9 8 7 6 7 8 7 6 5 7 7 5 4 5 5 6 6 6 6 6 7 7 6 5 6 7 7 7 5 5 7 8 7 6 6 6 7 5 6 5 6 7 7 7 7 5 4 2 3 4 2 1 3 5 6 5 4 6 7 7 8 9 8 8 6 5 4 4
3 3 2 3 3 2 2 3 4 5 5 2 8 9 4 4 3 2 6 5 4 5 5 4 5 8 7 6 6 6 5 5 5 6 5 4 4 6 5 5 6 7 7 6 6 6 5 5 6 6 7 6 6 6 5 6 5 5 5 6 6 6 7 7 5 2 1 3 4 2 1 1 3 5 5 6 7 5 5 4 3 3 2 4 5 5 5
5 3 3 0 1 1 3 2 1 0 0 0 1 6 1 1 1 2 5 3 3 2 1 1 3 2 1 5 5 3 4 4 3 3 3 3 4 4 4 4 5 4 4 5 5 4 5 4 5 7 7 6 5 5 7 7 6 6 5 7 7 7 6 6 6 5 1 1 2 3 4 5 5 6 6 5 4 4 5 5 6 5 5 3 4 7 7
6 7 4 2 3 1 7 5 1 1 0 0 3 5 1 1 2 0 3 4 2 2 1 1 1 4 2 1 1 2 2 2 2 2 2 2 2 3 4 5 5 6 5 5 6 5 5 5 5 5 5 6 6 5 6 6 7 6 6 5 4 4 6 7 7 6 5 2 1 0 2 6 6 5 4 4 6 6 8 7 6 5 5 5 5 4 5
4 4 6 4 7 7 5 4 1 2 1 3 3 4 2 1 0 1 2 4 0 1 2 1 2 4 2 2 1 2 1 3 2 1 3 2 2 3 4 4 6 6 7 6 6 7 7 8 8 7 6 5 6 6 5 6 5 6 6 5 5 4 6 6 5 6 3 1 0 2 3 1 6 5 5 5 4 3 5 6 6 5 6 7 6 5 5
1 6 4 3 2 1 1 2 3 3 0 3 3 2 6 3 0 1 2 3 3 1 0 2 5 4 2 2 2 1 1 1 3 1 3 3 3 3 2 4 3 4 4 5 7 8 9 9 9 9 8 8 6 5 6 4 5 5 7 7 7 4 3 4 4 4 2 1 1 1 1 1 2 3 4 5 3 5 4 6 7 6 6 7 8 5 3
2 6 0 2 2 4 3 2 4 3 3 3 5 8 4 1 1 1 3 2 2 1 1 0 3 1 1 1 2 3 3 4 4 2 2 3 3 4 4 5 4 4 3 3 5 5 6 7 7 7 8 9 8 7 5 5 7 6 6 7 7 7 5 5 3 3 4 1 0 1 1 3 2 1 2 6 7 8 6 5 7 6 7 7 8 6 4
1 1 6 2 1 3 0 3 3 3 4 4 7 2 2 3 2 2 3 2 2 2 1 1 1 1 2 4 4 4 4 3 4 5 6 6 7 6 4 5 7 8 8 7 7 7 6 7 8 7 7 7 8 8 8 8 7 6 6 7 6 6 6 5 7 3 1 2 3 1 4 8 6 3 2 1 4 6 7 7 8 7 6 6 7 6 5
2 3 4 2 1 1 3 4 2 3 3 2 4 3 0 1 1 0 0 1 1 2 0 1 1 2 3 3 3 4 5 4 5 6 7 8 8 9 9 8 6 6 8 9 9 8 7 6 6 6 6 7 7 7 8 10 8 6 6 7 7 6 5 6 6 7 4 2 1 2 1 1 5 6 5 5 5 6 7 7 8 8 6 6 7 6 5
2 1 2 2 1 3 5 1 2 1 2 6 3 4 2 1 1 1 1 1 1 0 0 2 3 1 1 3 2 4 4 6 7 8 8 7 8 9 8 6 7 7 8 6 7 6 6 7 6 6 6 7 7 7 9 8 8 7 5 6 7 8 7 6 6 7 6 4 4 3 2 2 1 4 3 4 5 6 8 7 7 6 4 5 6 6 6
1 1 3 3 0 2 4 5 5 4 4 3 2 4 3 3 2 1 1 2 1 1 1 3 3 4 3 2 2 2 3 3 4 4 6 6 8 8 9 11 10 9 9 11 11 12 7 5 5 6 5 6 8 9 8 6 8 8 10 9 6 7 8 8 7 6 6 6 5 4 4 4 3 4 4 3 4 2 5 7 7 7 5 5 6 6 5
4 6 6 3 1 2 5 5 3 5 4 2 3 4 2 2 1 2 2 0 0 2 1 2 4 3 4 5 5 4 3 4 4 4 4 5 5 5 6 7 8 8 10 11 11 12 13 8 7 5 5 6 9 10 8 8 8 7 8 9 10 8 7 7 8 7 5 7 7 5 4 4 4 5 6 6 5 5 3 5 6 6 6 5 5 6 6
2 1 2 1 3 2 2 3 2 1 2 3 3 3 3 2 2 1 0 2 2 2 1 2 4 4 3 3 4 4 4 5 6 6 7 7 6 7 9 8 7 9 7 10 11 11 14 11 9 8 7 7 8 8 8 9 9 9 8 8 9 9 9 7 7 7 6 6 6 6 6 6 5 5 4 5 7 8 8 9 7 7 7 7 6 5 6
2 1 4 2 0 1 1 0 2 2 2 2 2 1 1 2 2 2 1 2 0 1 1 2 2 2 2 2 4 4 5 6 6 7 7 9 9 8 7 8 8 8 8 9 11 12 12 11 10 11 10 10 9 8 8 8 8 9 10 9 8 8 9 8 7 7 7 7 7 6 8 4 4 2 2 3 4 7 9 9 9 8 8 8 8 8 7
1 2 1 1 2 3 2 3 2 2 1 0 1 1 2 2 3 2 2 1 2 3 2 3 2 1 3 3 4 5 5 5 5 6 8 8 9 9 10 10 8 9 11 14 15 16 14 10 10 10 11 11 10 10 9 8 8 9 10 10 8 8 8 7 8 7 7 7 6 6 5 2 2 4 8 8 7 6 5 2 4 8 9 7 8 8 9
0 4 5 5 3 2 5 5 4 3 2 2 1 0 0 0 1 0 3 2 1 2 3 3 2 2 4 4 4 4 5 6 7 8 8 9 10 10 10 10 11 13 13 13 14 16 14 11 10 11 11 11 10 9 9 8 8 10 10 9 8 8 6 6 6 6 5 6 5 4 4 4 3 2 5 3 4 7 7 5 4 4 5 8 10 8 8
2 5 7 7 4 1 3 5 4 3 2 3 2 3 2 2 1 1 2 1 0 1 2 2 2 4 4 6 4 4 5 6 6 8 9 11 11 12 12 13 14 14 13 15 14 15 13 12 12 11 11 11 10 10 9 9 9 9 8 7 7 7 6 6 6 6 5 6 5 3 3 4 5 5 2 3 7 7 6 2 1 3 6 6 9 12 12
0 1 5 5 2 1 1 2 2 2 2 3 3 3 2 2 1 1 1 2 2 3 3 3 2 4 5 6 4 6 7 7 8 9 9 10 11 12 12 11 13 15 15 14 14 14 13 12 13 13 13 12 11 11 10 10 9 10 10 9 9 8 7 7 6 6 5 5 5 4 4 5 5 6 6 4 4 8 10 10 9 6 1 5 11 11 11
0 2 4 5 3 2 1 2 0 0 1 3 2 3 3 1 1 3 3 3 2 1 2 3 5 3 4 5 4 6 7 8 8 9 11 12 12 11 11 12 12 11 11 11 12 12 12 13 13 13 13 13 12 12 11 10 10 11 11 10 11 10 8 7 7 6 6 6 5 5 6 5 5 5 6 6 6 4 8 10 13 11 8 3 6 8 11
1 4 3 3 2 3 0 2 1 1 0 1 1 0 2 3 3 2 3 3 3 3 3 3 4 5 3 4 5 6 7 8 10 11 10 10 11 11 10 10 11 11 11 12 12 12 13 14 14 13 13 14 12 12 11 11 11 11 11 11 11 10 8 8 8 7 7 6 6 6 6 6 6 7 7 6 6 7 7 4 6 9 11 11 7 6 5
2 4 5 4 1 1 1 2 1 4 3 2 4 4 3 1 3 4 4 3 4 3 3 4 4 4 3 4 4 5 7 8 9 9 9 10 11 10 10 10 12 12 12 12 11 12 13 13 12 12 12 13 12 11 11 11 12 11 12 12 10 11 14 11 8 8 7 7 7 6 6 6 7 7 7 7 6 6 6 6 7 7 5 4 5 3 4
2 1 1 2 2 2 2 4 3 3 3 3 4 4 3 1 1 3 3 4 4 4 4 4 3 3 3 4 4 7 8 8 9 9 9 9 9 9 10 11 12 11 11 10 11 11 11 11 11 12 13 12 11 11 11 11 11 12 12 11 10 9 8 11 10 8 7 7 7 6 7 7 7 7 6 7 8 7 5 3 5 6 4 3 2 4 8
2 2 1 1 1 1 1 2 2 2 2 2 2 1 2 2 1 1 4 4 4 2 3 5 3 3 4 4 4 6 7 8 8 9 9 8 8 9 9 10 10 10 9 10 10 10 10 11 11 12 13 12 11 11 10 10 10 10 10 10 9 9 9 8 8 8 8 7 7 7 6 6 6 6 6 5 5 6 7 7 7 7 6 7 7 8 7
2 0 0 0 1 3 4 2 4 3 4 3 3 3 2 1 1 4 4 5 4 4 5 4 3 4 3 3 4 5 7 8 8 8 8 8 9 8 9 9 9 7 7 8 9 10 11 11 11 12 12 12 12 11 11 10 9 10 11 11 10 9 8 8 8 8 8 7 8 8 7 6 6 7 7 7 8 8 7 6 7 8 7 7 6 10 10
2 2 2 1 3 2 4 4 4 4 3 2 2 2 1 1 2 3 5 5 3 4 5 3 3 4 3 4 4 4 4 6 6 7 7 7 8 8 8 7 6 7 8 10 11 11 11 12 11 11 12 13 12 11 10 9 9 9 9 9 9 12 14 13 10 9 8 8 7 8 7 7 7 6 6 7 6 6 8 8 5 3 5 8 8 8 9
4 1 4 1 0 3 2 1 3 3 3 1 1 2 3 3 5 6 5 5 6 4 4 3 4 4 4 4 3 4 4 5 6 6 6 7 8 8 7 6 6 6 7 9 9 9 10 11 12 12 13 13 13 11 9 8 7 8 9 8 8 8 10 14 9 10 8 8 8 8 7 7 7 7 6 7 8 8 8 8 9 8 6 8 8 8 8
2 1 3 1 0 0 2 2 3 4 4 3 5 4 4 4 4 4 5 5 5 4 3 4 4 3 3 3 3 3 4 5 5 6 7 9 9 9 7 6 6 6 6 7 8 8 9 11 12 12 13 13 13 11 9 8 6 6 7 7 7 7 7 9 10 8 7 7 7 7 7 7 7 7 8 8 7 6 6 7 8 8 8 8 8 8 8
5 5 4 3 5 5 5 4 3 4 4 4 4 4 4 4 4 4 5 4 4 4 4 3 2 2 2 3 3 4 4 5 5 6 9 9 9 9 8 7 6 5 6 6 6 8 9 10 11 12 12 12 12 10 10 9 7 6 6 4 5 4 5 6 9 7 7 6 6 6 7 6 7 7 7 7 6 5 5 6 8 7 6 7 8 7 9
4 3 2 3 3 3 4 4 5 4 4 3 4 3 4 4 4 4 4 3 4 3 1 0 0 0 1 2 4 4 5 5 6 7 8 9 9 9 8 8 7 7 8 7 8 10 11 11 11 13 13 11 11 11 10 10 8 7 8 8 6 4 5 5 5 6 5 5 6 6 5 6 5 5 7 8 8 8 6 2 3 8 9 9 7 8 8
3 2 2 2 3 3 3 4 4 4 4 4 4 4 5 5 4 3 3 3 2 1 2 2 1 1 2 3 4 5 6 7 7 7 8 10 9 7 7 7 8 9 10 10 9 11 12 12 15 18 12 10 10 11 12 10 8 8 8 7 7 7 6 6 6 6 5 5 6 6 5 6 6 6 6 6 6 7 7 7 1 2 9 9 9 7 7
4 4 4 3 3 4 4 4 4 4 4 4 4 4 5 4 4 3 3 2 0 2 3 3 2 2 1 2 2 3 3 4 4 5 6 6 6 6 6 7 8 8 8 8 11 11 11 11 16 17 10 9 10 11 12 15 8 8 8 8 7 7 6 6 6 6 5 5 6 7 8 8 7 7 7 6 7 6 6 8 7 1 9 9 8 7 6
5 4 4 4 4 4 5 5 3 3 2 1 3 3 4 3 3 2 1 1 0 1 3 2 2 2 1 2 1 3 5 6 7 7 6 7 6 5 5 7 7 7 7 7 10 10 9 12 15 10 8 8 9 9 12 16 13 9 8 9 8 8 8 8 7 7 7 7 7 7 7 7 8 8 8 7 6 7 8 7 9 7 7 8 7 7 6
1 1 1 1 1 2 3 1 2 2 3 2 4 4 4 3 2 1 2 1 1 1 3 2 2 2 1 1 2 3 3 5 6 6 6 6 6 4 4 3 3 4 5 8 9 8 8 10 8 8 8 8 9 9 10 13 13 9 9 8 9 9 9 8 8 8 8 8 7 7 7 7 8 8 8 8 9 7 7 9 8 8 8 8 8 7 6
4 4 4 3 3 4 3 3 3 2 2 2 2 4 4 2 3 3 1 1 1 1 2 3 2 1 0 0 1 1 2 3 4 5 6 5 4 5 5 4 6 8 8 9 8 7 9 12 9 7 7 8 8 7 8 11 10 9 9 9 9 9 9 9 9 9 8 8 9 9 9 8 8 8 8 8 9 8 8 8 8 8 8 7 7 6 6
5 4 3 4 4 3 4 3 4 3 1 2 3 4 3 4 3 2 3 2 1 1 2 2 2 1 0 0 0 1 2 3 3 3 4 4 6 6 5 6 8 8 9 8 7 7 8 8 8 8 8 7 7 8 7 10 9 8 8 8 8 9 9 9 9 9 8 8 8 8 8 8 9 9 8 8 8 7 8 8 7 7 7 7 5 5 6
5 3 3 4 4 4 4 4 2 2 4 3 2 3 4 4 4 5 4 2 1 0 1 1 2 1 0 1 1 2 3 3 3 4 3 4 3 4 6 6 7 7 11 10 8 8 8 8 8 7 7 7 6 10 10 8 8 8 8 8 8 8 8 8 8 8 8 8 8 8 8 8 8 8 8 8 8 7 7 7 6 6 5 5 6 6 7
5 5 6 5 5 4 4 4 4 5 4 5 3 3 4 4 4 1 2 2 2 2 2 2 1 2 1 1 1 2 2 2 3 3 3 2 2 1 1 6 7 7 11 7 7 6 7 7 7 6 9 8 7 10 10 8 7 8 8 8 8 8 8 8 7 7 8 8 8 8 8 8 8 7 7 6 5 5 6 6 6 6 7 6 7 7 7
5 5 5 5 5 6 5 4 4 2 3 6 4 2 4 4 4 4 4 3 3 3 3 3 2 2 1 1 2 2 2 2 3 3 3 4 5 2 2 4 5 7 10 7 6 6 7 6 6 8 11 12 12 11 8 7 7 7 8 8 8 8 8 8 8 7 7 7 7 7 7 7 6 5 6 6 7 7 7 7 7 7 8 8 7 7 7
6 7 7 7 6 4 4 5 5 7 6 2 1 2 4 4 4 4 4 4 4 4 3 3 3 3 2 2 1 1 0 0 0 0 4 4 4 5 5 5 6 5 7 7 6 6 6 6 8 11 10 12 12 12 8 7 7 7 7 8 8 8 8 8 8 8 8 8 7 7 7 7 6 6 7 7 7 7 7 7 7 7 7 7 7 7 7
6 7 6 5 4 6 8 7 7 3 2 2 1 2 4 4 5 5 4 4 4 4 5 5 4 4 4 3 1 0 0 1 1 1 1 2 1 3 4 5 4 5 7 8 6 6 6 8 10 11 11 12 12 10 8 8 7 8 8 8 8 8 7 7 8 7 8 8 8 7 7 7 7 7 7 7 7 7 7 8 7 7 7 7 6 6 6
6 5 5 6 7 7 6 4 2 3 3 2 3 4 4 5 5 5 5 5 4 4 4 4 4 4 4 4 5 3 2 2 2 1 1 0 1 2 3 4 5 6 6 6 5 5 6 6 8 10 11 12 11 8 7 8 8 8 8 8 7 7 7 7 7 7 7 8 8 9 9 8 8 7 8 7 7 7 7 8 8 7 7 7 6 7 6
7 7 7 6 8 7 3 3 3 4 5 7 7 7 4 5 5 5 4 3 3 3 3 3 4 3 3 3 3 2 4 6 2 1 1 1 2 2 3 4 4 5 6 5 6 6 10 10 10 10 10 10 8 7 7 7 7 7 7 7 7 7 6 6 6 6 6 7 7 7 7 7 7 8 7 7 6 6 6 7 7 6 6 6 6 5 5
7 8 7 5 5 4 4 5 5 6 7 6 5 6 4 4 4 4 4 3 3 3 4 3 4 4 4 4 4 4 4 2 1 1 1 2 2 2 2 3 5 6 5 5 5 5 7 9 9 10 10 8 7 7 7 7 7 7 7 6 6 6 6 6 5 5 6 7 6 7 7 7 7 6 7 7 6 6 6 6 6 6 6 5 5 5 5
6 4 4 5 5 6 6 6 7 7 7 6 7 5 4 5 5 6 6 6 6 5 4 4 4 5 5 5 4 4 4 3 2 2 2 3 2 2 2 2 3 4 5 4 4 5 6 8 8 8 7 5 6 6 6 7 7 6 6 7 7 5 6 7 6 8 7 7 6 6 6 6 6 6 7 6 6 5 5 6 6 7 9 6 5 5 5
5 6 7 7 7 7 7 8 9 8 7 7 6 5 6 7 7 7 7 7 5 5 6 5 4 4 5 4 4 4 3 3 3 4 4 3 2 2 3 2 2 2 3 4 4 3 3 4 4 5 6 5 5 6 5 6 5 6 6 5 5 6 6 7 6 5 5 6 6 5 4 5 5 5 4 5 5 5 5 5 5 5 5 5 5 5 5
7 7 7 6 7 6 6 7 5 5 5 5 5 6 6 7 6 5 5 6 7 8 7 6 6 6 5 5 5 5 4 3 4 4 3 3 3 3 2 3 3 3 4 4 3 4 3 3 5 5 5 5 4 4 5 6 6 5 5 6 5 5 6 6 6 5 4 5 5 5 6 5 4 5 5 5 4 5 4 4 4 5 5 5 4 4 4
Wind_Direction
38 30 20 23 67 49 68 10 44 68 14 47 94 160 120 109 118 189 175 107 89 294 322 326 345 356 7 25 37 47 59 58 55 56 52 48 43 39 39 33 32 31 28 20 19 21 19 22 22 18 18 13 10 9 16 14 31 41 61 121 145 160 158 163 175 168 168 175 176 175 161 154 152 143 130 117 112 114 144 134 117 105 107 104 108 122 131
34 15 19 5 76 56 40 19 1 65 84 70 81 72 6 75 67 132 117 94 96 7 341 350 343 334 24 48 62 61 53 50 61 66 61 54 47 43 41 38 36 35 32 28 23 23 22 19 19 18 16 14 8 8 0 356 11 10 45 69 70 63 110 185 187 179 174 176 179 174 157 156 164 158 148 146 150 159 165 159 153 140 116 147 178 173 161
26 5 47 41 75 87 65 17 27 25 86 69 53 98 90 86 65 60 99 106 88 14 37 31 353 7 48 66 53 53 55 51 55 62 58 51 43 35 34 32 32 34 35 32 30 28 21 17 13 15 15 10 14 17 6 2 6 353 19 94 97 106 148 244 225 212 200 187 174 172 174 165 160 157 161 170 159 161 170 174 171 172 179 184 189 197 183
150 213 118 113 98 86 94 57 13 7 20 93 348 65 338 110 146 137 99 83 126 106 40 46 30 53 57 62 58 54 49 48 55 59 55 50 43 36 30 29 28 28 28 27 27 22 15 15 13 14 10 6 22 15 4 5 351 357 12 28 135 180 197 218 249 177 126 51 4 20 26 22 57 108 136 154 165 176 179 176 179 181 189 189 184 184 179
194 175 188 136 120 91 70 260 203 126 77 103 90 40 39 22 134 139 151 178 195 152 153 101 53 60 61 58 45 52 50 50 57 59 58 55 48 40 36 34 31 27 23 21 16 8 8 5 8 1 359 17 20 4 7 352 1 13 16 12 355 359 317 289 66 59 78 110 122 132 132 147 186 184 193 184 176 179 183 181 168 182 192 180 186 164 161
184 180 211 341 76 140 217 308 303 181 164 161 117 58 10 356 63 200 167 131 140 106 106 105 102 77 72 77 58 65 77 56 52 50 50 49 48 43 36 34 31 23 19 19 14 10 357 348 351 331 358 9 349 359 2 8 28 22 22 13 14 352 334 330 341 74 135 145 161 179 184 177 141 169 212 197 179 172 162 169 183 184 176 189 173 163 167
166 159 80 80 185 235 313 312 236 160 106 101 105 108 66 37 55 89 96 105 115 136 134 124 117 109 107 83 69 48 40 62 65 61 45 35 31 30 25 22 19 13 10 8 9 10 4 356 349 357 359 1 342 3 15 19 16 33 28 19 15 8 3 344 348 347 304 199 220 260 348 128 162 190 183 176 174 182 174 177 179 179 179 185 185 159 144
73 78 111 152 241 272 323 358 48 78 116 112 87 66 23 30 26 71 98 114 121 140 151 152 147 125 115 85 64 52 36 43 53 52 40 27 29 24 7 15 1 4 0 359 356 347 336 352 354 3 349 342 358 350 351 19 4 17 22 25 15 3 2 359 357 12 43 295 263 225 145 127 171 192 190 184 181 176 166 178 182 146 128 147 155 146 137
148 155 102 177 7 7 72 81 195 124 61 51 117 141 221 342 345 80 122 104 98 110 107 238 228 223 55 59 49 27 41 22 25 49 23 17 9 4 354 1 350 334 334 347 339 344 350 357 8 358 338 343 351 356 4 355 1 360 10 16 9 354 348 349 356 347 39 113 274 218 171 171 181 187 181 192 185 166 165 181 172 182 181 149 142 141 143
116 124 72 15 26 266 237 233 288 357 279 220 180 103 39 337 326 99 134 122 126 111 156 78 191 140 76 21 344 321 3 31 8 349 332 333 343 344 343 345 348 347 342 342 341 354 343 351 2 352 349 349 352 359 355 348 348 352 357 349 343 344 337 338 350 351 340 11 64 317 191 163 177 176 177 165 167 172 159 162 162 156 132 100 70 98 132
75 70 129 187 163 242 206 191 250 282 303 152 136 68 189 250 154 50 130 122 183 85 60 1 90 80 128 232 251 268 314 352 330 330 312 310 326 338 354 356 345 341 340 337 337 342 351 351 344 347 349 357 357 350 345 339 333 331 325 322 323 328 322 320 330 334 359 351 34 62 325 213 148 147 159 158 146 122 115 109 109 107 105 98 79 69 93
143 147 120 202 192 150 130 245 276 274 207 149 63 93 261 213 56 124 126 138 161 195 85 57 70 104 152 245 252 238 327 355 300 311 332 340 353 352 13 341 330 323 326 348 349 347 342 334 334 342 345 344 342 341 333 333 334 322 310 311 303 292 274 303 314 322 359 11 256 134 136 34 334 123 125 104 109 98 85 108 113 105 105 114 113 101 99
66 95 343 12 319 282 262 277 289 324 156 97 130 203 226 198 96 116 159 166 186 164 72 90 91 236 190 221 281 336 351 348 337 340 343 342 348 354 359 344 355 347 341 339 332 326 324 322 329 333 337 335 327 323 319 328 311 300 298 305 310 312 310 297 309 323 319 100 302 128 137 138 142 37 121 141 134 123 124 107 110 110 114 120 116 121 130
66 163 109 188 215 238 317 294 271 273 111 164 219 230 210 155 158 159 157 172 202 180 132 127 144 233 300 322 332 333 337 329 316 332 341 343 350 360 8 357 353 350 343 339 333 329 323 326 323 325 326 323 313 313 319 307 293 296 306 303 304 309 307 301 294 279 273 316 109 157 156 122 106 99 10 64 123 129 127 124 118 117 122 124 122 119 110
53 46 74 45 129 267 33 302 333 24 123 233 171 141 158 179 165 147 240 184 219 152 9 197 213 267 308 316 319 329 327 343 343 346 350 354 346 341 343 344 349 343 333 326 323 316 316 314 314 311 320 311 307 307 302 294 303 310 307 307 306 304 302 297 287 289 261 250 213 148 134 158 132 128 142 137 136 125 124 124 127 134 139 139 118 108 88
151 90 120 190 219 272 308 143 145 291 125 139 148 121 91 72 117 195 266 299 267 270 21 334 330 284 293 323 4 348 343 344 343 346 344 342 336 332 326 322 323 328 316 304 300 301 302 306 306 303 308 302 297 297 290 298 310 316 314 311 313 311 306 297 290 284 283 262 225 192 150 113 66 102 116 137 137 147 140 133 132 129 137 121 109 113 111
116 187 173 149 90 273 336 57 92 85 83 103 123 96 129 128 275 161 124 288 357 353 306 341 335 328 321 318 343 7 316 320 316 316 316 316 314 315 316 318 323 323 318 317 315 310 306 294 287 292 293 291 295 290 289 308 313 318 317 316 310 303 300 297 292 284 283 276 254 236 231 183 164 143 137 133 117 125 131 135 142 143 157 150 142 143 139
97 45 54 74 53 45 48 43 56 90 79 31 95 125 116 254 256 152 191 223 313 350 43 5 326 302 311 344 333 332 319 307 295 295 296 296 292 291 299 306 314 313 313 309 308 306 305 308 302 286 279 278 282 282 295 298 298 302 306 308 309 300 293 287 286 286 283 276 273 251 217 177 190 184 176 170 158 147 146 139 146 141 158 166 153 151 153
66 245 206 253 154 125 154 130 122 133 147 174 168 171 195 198 160 128 229 152 184 227 131 216 265 292 335 326 305 302 306 311 311 313 309 305 304 306 307 302 306 305 304 303 301 303 300 305 306 295 288 276 270 281 285 289 293 293 290 288 290 294 291 286 281 283 273 272 270 270 255 225 189 172 174 179 178 172 179 169 175 182 170 167 160 157 157
102 229 176 214 313 323 336 124 178 165 162 112 106 177 186 169 155 146 174 133 72 106 172 235 217 272 283 275 292 302 303 306 311 309 306 306 309 302 290 293 293 292 294 292 296 296 293 298 299 296 291 284 280 277 275 275 279 282 281 276 272 275 278 281 281 271 266 262 253 252 256 220 202 187 183 166 195 196 186 178 173 180 172 171 175 169 172
31 46 39 6 45 351 312 303 288 247 256 175 58 64 112 123 147 123 79 102 180 161 184 161 152 277 279 257 273 285 290 294 297 299 301 300 297 299 305 302 300 295 298 302 300 299 295 292 285 282 281 282 282 276 271 266 262 266 267 269 265 265 266 269 267 268 259 259 247 242 249 282 283 235 215 181 203 244 298 290 174 162 174 189 180 179 161
80 183 201 146 128 257 248 248 248 270 244 166 155 43 185 247 223 162 122 65 61 154 170 170 175 257 287 287 279 278 281 288 295 302 303 302 300 300 298 300 301 302 300 300 300 303 299 291 280 275 273 273 273 271 271 266 256 253 255 260 263 261 260 256 261 264 263 256 245 222 191 161 134 43 18 92 141 185 226 266 232 261 214 179 196 175 166
217 238 201 177 146 168 228 205 225 232 216 142 150 211 239 265 244 167 134 120 330 259 259 227 221 277 287 289 290 286 287 286 286 292 298 302 303 302 306 305 306 305 304 304 297 293 289 288 283 280 276 273 271 267 264 264 258 252 243 248 254 259 254 253 252 249 249 252 230 204 189 163 147 131 107 39 74 95 129 92 297 216 218 253 184 175 157
299 222 176 172 127 163 186 237 233 239 160 133 197 254 242 244 250 153 164 185 190 254 284 306 257 256 280 279 284 280 285 284 291 297 293 291 292 297 300 299 300 301 299 296 292 292 292 290 287 286 283 277 271 265 258 253 251 256 255 252 254 251 247 247 243 237 228 233 219 192 189 174 165 160 142 111 35 34 56 80 67 72 89 184 175 165 153
245 186 161 180 157 188 222 198 234 234 162 157 178 239 218 204 243 184 197 224 229 199 248 271 290 284 274 288 280 275 281 289 293 296 301 303 300 301 303 300 294 293 293 293 292 292 292 289 288 287 285 282 276 270 260 252 246 246 248 247 249 248 244 242 237 233 225 222 221 198 185 173 170 163 160 156 135 79 18 48 77 68 50 85 148 152 148
147 108 108 129 106 86 74 94 48 120 257 197 192 157 197 196 206 175 215 200 236 221 224 255 277 288 279 283 287 284 288 291 298 303 303 305 308 303 298 298 300 299 297 296 294 293 290 290 288 287 284 280 276 270 264 258 251 246 244 242 243 245 241 233 229 227 217 215 209 207 194 192 185 180 186 181 173 165 139 122 62 62 62 57 74 110 139
82 133 102 49 28 291 212 165 204 203 213 200 178 186 203 222 210 197 214 211 213 194 207 230 229 259 287 273 277 279 284 293 301 307 307 302 298 297 299 300 300 299 297 296 292 290 290 288 287 283 280 277 276 271 264 257 251 249 244 240 241 240 237 236 233 230 216 207 202 198 197 192 191 194 192 177 153 157 163 166 155 140 132 59 34 82 147
148 202 114 152 216 212 240 230 202 161 176 174 178 183 208 141 119 163 216 237 251 244 244 236 244 265 279 289 289 306 307 307 309 307 302 297 297 297 299 297 297 297 296 290 287 289 290 290 289 288 284 283 282 277 268 260 253 249 246 240 237 236 231 228 228 230 220 210 197 191 187 192 190 195 193 173 165 175 166 130 103 98 71 74 107 80 100
228 220 233 179 184 193 110 88 99 126 176 221 217 207 149 183 211 221 244 238 238 267 284 279 245 233 246 274 281 298 309 307 304 303 296 296 299 298 297 295 295 295 292 288 289 292 296 298 298 292 291 291 289 282 274 263 255 248 242 239 234 229 226 221 216 216 214 207 202 200 196 188 178 171 174 171 165 159 160 154 154 156 140 140 116 83 66
234 304 90 27 114 131 119 140 184 196 196 203 193 213 222 205 259 254 249 258 249 246 253 264 282 275 260 280 285 295 308 307 298 294 300 301 299 299 297 296 296 292 292 298 304 307 308 305 303 298 297 300 297 291 281 272 257 247 242 236 230 225 221 212 208 208 204 205 202 195 196 194 181 171 166 161 158 163 157 153 157 150 156 151 136 134 135
134 70 79 117 115 152 169 199 198 198 195 204 211 218 278 189 235 263 265 265 264 255 264 262 268 275 283 277 281 289 293 294 294 298 301 304 304 303 299 299 307 321 318 307 305 307 308 308 305 301 304 308 304 296 285 272 260 252 242 233 228 221 216 204 201 200 200 195 193 193 196 187 181 169 165 159 162 156 152 148 151 171 157 145 140 139 143
120 68 46 58 126 180 216 198 174 195 211 177 174 251 249 249 250 253 262 267 258 255 276 296 290 279 276 280 296 306 305 297 302 309 313 315 314 313 308 297 288 291 292 297 301 308 310 309 311 315 318 317 314 310 301 284 268 255 251 237 228 217 209 203 199 198 194 192 184 190 190 181 182 172 162 166 170 169 159 152 155 163 165 148 146 148 150
115 322 323 280 270 170 234 237 175 214 207 216 227 231 251 245 244 256 261 266 288 280 264 264 274 276 274 306 318 317 313 309 321 322 327 326 324 322 316 305 297 301 300 299 302 309 314 320 321 320 324 325 325 326 323 316 302 273 259 240 234 215 194 190 189 185 186 182 182 183 181 180 175 171 173 169 163 156 158 162 158 160 163 152 144 148 153
171 194 211 204 179 191 200 224 209 212 231 239 246 256 268 269 253 257 267 275 262 268 256 256 266 267 303 323 331 331 329 349 355 337 327 325 324 323 321 313 309 312 308 303 312 331 336 330 325 328 328 329 335 339 341 339 335 334 317 292 230 200 164 166 178 174 171 171 175 170 165 163 163 166 155 151 143 139 142 162 156 146 143 127 131 135 143
172 207 202 213 201 199 190 181 182 203 212 247 277 270 255 265 265 262 262 256 252 237 225 205 228 254 323 348 354 346 352 343 327 322 322 324 323 321 318 319 331 348 343 339 349 344 336 330 331 329 329 336 346 353 352 346 353 354 4 13 22 74 94 123 142 153 151 151 143 141 142 144 149 141 140 139 138 137 116 38 253 158 139 128 127 128 131
173 199 204 214 209 194 179 191 191 193 196 216 234 259 285 282 275 271 262 244 234 234 172 151 148 129 41 12 352 354 345 335 324 323 322 324 322 316 319 332 356 360 351 338 352 347 337 333 331 332 332 346 352 357 359 356 5 13 19 33 51 52 63 79 87 91 98 118 126 127 130 118 113 115 123 120 116 121 129 113 19 238 125 123 125 124 120
201 199 210 197 179 174 188 197 200 198 216 230 247 264 270 269 245 246 251 273 265 165 163 156 125 93 45 331 323 329 333 328 320 322 318 321 321 320 327 353 11 2 347 347 338 335 329 331 328 332 338 357 354 359 1 6 14 19 32 34 48 55 64 73 75 89 83 90 100 106 106 103 102 99 99 104 112 113 114 124 108 187 117 116 116 113 109
201 194 198 196 182 182 203 213 199 185 191 244 255 240 237 254 263 252 245 275 282 201 170 151 141 159 186 249 322 344 347 346 344 336 336 334 330 324 352 16 2 353 349 330 317 320 320 327 330 340 353 357 353 357 3 13 20 23 35 37 46 54 56 63 66 71 77 80 83 95 105 107 110 105 104 95 89 108 115 111 118 126 108 108 103 100 102
190 198 212 233 175 195 226 219 163 193 191 231 280 292 259 223 224 221 260 277 286 177 143 133 145 158 213 248 338 357 350 346 348 346 340 334 335 347 339 336 347 330 299 303 310 311 322 332 341 348 358 355 356 360 6 14 26 33 32 38 42 50 53 62 63 68 68 77 82 85 83 83 92 97 99 102 104 99 98 105 111 112 106 105 104 106 106
202 190 202 180 202 222 222 249 241 226 207 197 208 257 262 206 202 199 230 283 309 117 138 130 125 137 56 23 1 347 343 349 352 353 349 337 339 354 343 345 356 343 331 328 324 322 332 343 357 1 356 357 6 5 8 13 25 35 36 41 44 47 49 53 60 64 66 69 75 76 81 82 84 86 90 93 93 94 98 98 94 96 96 96 99 101 100
206 200 197 182 208 202 213 229 251 256 219 225 227 246 243 208 186 173 218 224 272 100 140 139 131 126 123 168 175 327 1 2 358 350 347 357 15 6 359 340 336 338 335 335 329 330 346 1 3 360 356 356 8 16 19 19 26 34 38 41 45 51 55 53 55 56 60 63 65 69 75 80 80 80 81 84 83 85 84 83 83 84 93 98 95 93 91
219 192 182 198 210 213 221 226 240 307 288 256 240 242 236 202 175 203 214 202 203 133 113 96 141 151 160 87 70 32 31 0 356 356 9 22 359 350 351 330 330 328 333 335 341 351 1 4 1 5 358 358 8 23 36 37 34 34 40 39 44 45 55 58 61 59 60 63 63 67 65 69 73 75 72 75 73 76 81 83 78 71 69 76 87 92 105
200 192 201 206 211 215 218 221 220 230 254 282 269 240 220 197 190 170 134 164 170 157 131 126 97 85 80 72 67 54 10 351 4 5 348 333 304 255 300 293 317 325 337 346 350 358 1 358 1 0 8 16 23 23 38 42 41 40 41 42 45 47 51 53 57 59 61 65 66 65 66 70 73 78 78 70 67 65 70 76 83 86 88 89 96 96 97
201 200 202 203 212 214 208 216 230 234 253 270 258 219 195 187 183 176 177 184 192 183 171 169 152 140 134 121 100 77 14 1 358 351 16 352 342 331 4 335 320 325 347 354 353 2 359 359 358 9 20 30 31 38 40 39 42 48 50 48 47 48 50 52 54 57 57 60 61 64 68 74 74 70 73 80 85 82 81 87 93 93 95 95 94 96 96
203 203 205 210 210 197 205 214 214 223 225 207 164 175 196 189 193 191 176 184 192 198 187 185 180 181 174 164 160 172 204 223 218 67 47 5 7 331 335 340 335 347 351 356 2 3 2 2 11 26 36 34 39 41 44 38 40 45 50 57 58 57 54 55 55 56 59 61 61 62 64 67 68 69 79 81 83 87 88 90 89 93 95 97 98 97 96
213 214 212 205 201 211 215 211 221 207 157 144 161 225 212 203 193 189 189 190 197 203 196 191 185 191 184 184 205 260 351 41 65 176 190 177 185 266 307 320 334 353 3 10 14 4 358 4 24 36 40 43 44 46 42 41 42 45 47 49 53 57 61 63 65 66 65 67 68 66 67 72 73 72 75 81 84 86 85 84 83 79 82 86 85 87 89
212 207 203 209 222 226 221 215 183 167 173 173 203 235 221 206 202 192 196 203 209 206 190 186 196 202 186 171 164 144 107 47 10 1 74 320 288 296 318 346 7 6 14 17 11 8 3 9 26 37 47 49 52 51 46 46 45 47 47 51 48 53 55 60 64 68 71 75 76 79 77 74 73 74 74 74 73 74 79 79 79 79 79 78 77 79 79
200 205 210 208 220 225 191 163 163 194 201 210 216 223 211 190 195 205 194 188 218 214 190 190 193 198 187 190 200 195 169 144 103 311 288 57 2 4 18 15 1 13 20 17 20 12 16 25 33 40 45 50 53 53 52 51 51 50 53 50 53 50 53 57 56 59 65 65 70 73 75 78 80 82 82 78 79 78 78 84 89 90 87 86 87 86 89
207 208 208 202 211 198 181 189 196 209 221 221 217 229 191 177 179 183 187 191 192 202 206 207 202 206 206 200 193 211 200 183 135 188 215 136 79 47 12 4 17 22 23 22 19 13 16 27 34 36 41 46 51 53 58 57 57 58 55 56 56 56 59 61 60 61 65 65 65 70 75 78 80 80 83 81 80 77 79 79 79 82 89 89 86 86 84
209 192 183 189 201 202 199 193 207 217 220 204 215 206 154 140 160 211 201 192 196 197 200 211 216 214 203 200 203 210 206 205 224 244 192 150 120 99 52 41 23 25 30 31 22 15 14 29 34 35 38 41 46 54 59 63 63 60 63 61 60 59 59 64 66 65 65 68 64 65 67 68 68 70 72 73 75 72 71 73 75 75 75 74 73 73 72
195 197 209 208 205 209 200 198 207 207 203 206 203 165 155 170 195 200 191 186 171 182 209 222 235 230 217 210 206 209 212 214 207 198 180 161 136 96 74 66 48 43 33 35 31 20 20 35 38 41 42 45 48 49 54 64 64 65 65 66 64 64 63 61 63 66 67 69 73 69 70 72 74 72 69 76 76 73 73 71 71 67 70 75 77 77 76
209 212 213 203 201 205 206 215 222 211 206 196 170 165 182 191 192 190 183 182 184 194 191 184 225 236 206 207 199 206 199 188 189 190 172 166 151 136 99 73 68 52 46 37 25 28 31 36 50 55 58 57 53 54 55 56 61 63 63 65 66 64 63 67 71 73 67 68 77 78 66 66 75 77 73 68 73 73 68 66 70 75 79 76 73 73 72